Location: City of Britt
(43.0975°N, 93.8032°W)
Time: 01:41:48
(UTC+00:00)

ACS3 Solar Sail - Visible Passes

Search period start: 06 October 2024 00:00
Search period end: 16 October 2024 00:00
Orbit: 961 x 1037 km, 97.4° (Epoch: 05 October)

Date Brightness Start Highest point End Pass type
(mag) Time Alt. Az. Time Alt. Az. Time Alt. Az.
06 Oct 2.5 01:17:38 25° ESE 01:20:22 36° ENE 01:26:04 10° N visible
06 Oct 2.9 03:02:48 36° SW 03:04:11 41° W 03:10:10 10° NNW visible
07 Oct 3.6 00:07:50 10° ENE 00:09:24 11° NE 00:10:59 10° NE visible
07 Oct 1.9 01:50:03 42° SE 01:52:05 62° ENE 01:58:20 10° N visible
07 Oct 3.7 03:35:13 22° WSW 03:36:25 23° W 03:41:19 10° NW visible
08 Oct 3.2 00:37:17 13° E 00:40:44 19° ENE 00:45:01 10° NNE visible
08 Oct 1.9 02:22:27 55° S 02:23:56 79° WSW 02:30:20 10° NNW visible
08 Oct 4.4 04:07:38 11° W 04:08:49 12° W 04:11:05 10° WNW visible
09 Oct 2.6 01:09:40 24° ESE 01:12:13 33° ENE 01:17:44 10° N visible
09 Oct 2.7 02:54:50 41° WSW 02:55:57 45° W 03:01:59 10° NNW visible
10 Oct 1.9 01:42:02 42° ESE 01:43:51 56° ENE 01:50:01 10° N visible
10 Oct 3.6 03:27:12 24° WSW 03:28:05 25° W 03:33:13 10° NW visible
11 Oct 3.3 00:29:14 12° E 00:32:30 18° ENE 00:36:27 10° NNE visible
11 Oct 1.8 02:14:24 61° S 02:15:38 86° WSW 02:22:00 10° NNW visible
11 Oct 4.3 03:59:34 13° W 04:00:24 13° W 04:03:22 10° WNW visible
12 Oct 2.7 01:01:34 23° E 01:03:55 30° ENE 01:09:14 10° N visible
12 Oct 2.6 02:46:44 47° WSW 02:47:33 49° W 02:53:41 10° NNW visible
13 Oct 2.0 01:33:54 41° ESE 01:35:29 50° ENE 01:41:32 10° N visible
13 Oct 3.5 03:19:04 27° W 03:19:38 28° W 03:24:57 10° NW visible
14 Oct 3.3 00:21:02 11° E 00:24:10 16° ENE 00:27:42 10° NNE visible
14 Oct 1.7 02:06:12 66° SSE 02:07:12 86° ENE 02:13:31 10° N visible
14 Oct 4.2 03:51:22 15° W 03:51:51 15° W 03:55:22 10° NW visible
15 Oct 2.8 00:53:20 22° E 00:55:30 27° ENE 01:00:36 10° N visible
15 Oct 2.4 02:38:29 53° WSW 02:39:02 55° W 02:45:13 10° NNW visible
